Location: ????????
(55.6189°N, 38.3031°E)
Time: 05:56:30
(UTC+00:00)

ATLAS CENTAUR R/B - Pass Details

Date: 15 November 2019
Orbit: 457 x 691 km, 64.7° (Epoch: 30 November)

Event Time Altitude Azimuth Distance (km) Brightness Sun altitude
Rises 03:08:50 0° 186° (S) 3,053 5.2 -15.4°
Reaches altitude 10° 03:11:31 10° 173° (S) 2,135 4.5 -15.1°
Maximum altitude 03:15:29 25° 119° (ESE) 1,355 4.2 -14.5°
Drops below altitude 10° 03:19:21 10° 65° (ENE) 2,087 5.1 -14.0°
Sets 03:21:56 0° 52° (NE) 2,970 5.7 -13.6°
